Location: Le Rocchette
(44.3500°N, 7.8333°E)
Time: 17:15:00
(UTC+00:00)

Meteor 2-2 Rocket - Pass Details

Date: 17 November 2019
Orbit: 852 x 929 km, 81.3° (Epoch: 05 December)

Event Time Altitude Azimuth Distance (km) Brightness Sun altitude
Exits shadow 04:19:47 49° 286° (WNW) 1,085 4.3 -22.6°
Maximum altitude 04:20:19 51° 266° (W) 1,061 4.3 -22.5°
Drops below altitude 10° 04:25:44 10° 192° (SSW) 2,481 6.6 -21.5°
Sets 04:28:12 0° 187° (S) 3,419 7.4 -21.1°
